GLO8001 SBPA-SBFI

Flight info

Callsign GLO8001
Flight time 1h 5m
Altitude 38000
Route NOBEL EPGEP UZ83 NELUP
Aircraft B738/M-V/N

Departure

Time 2026-04-25 14:36
Airport Porto Alegre-Salgado Filho International Airport (SBPA)

Arrival

Time 2026-04-25 15:42
Airport Cataratas International Airport (SBFI)
Time Latitude Longitude Altitude Speed Heading
2026-04-25 14:28 -29.99217 -51.17698 12 ft 0 kts 183°
2026-04-25 14:28 -29.99223 -51.17699 12 ft 3 kts 181°
2026-04-25 14:29 -29.99254 -51.17674 13 ft 8 kts 121°
2026-04-25 14:29 -29.99260 -51.17593 13 ft 13 kts 90°
2026-04-25 14:29 -29.99260 -51.17473 13 ft 17 kts 90°
2026-04-25 14:29 -29.99263 -51.17317 13 ft 21 kts 91°
2026-04-25 14:30 -29.99266 -51.17132 13 ft 23 kts 90°
2026-04-25 14:30 -29.99273 -51.16774 13 ft 22 kts 93°
2026-04-25 14:30 -29.99280 -51.16601 13 ft 21 kts 90°
2026-04-25 14:31 -29.99283 -51.16433 14 ft 21 kts 90°
2026-04-25 14:31 -29.99292 -51.16274 16 ft 19 kts 111°
2026-04-25 14:31 -29.99409 -51.16233 16 ft 19 kts 181°
2026-04-25 14:31 -29.99476 -51.16133 17 ft 18 kts 95°
2026-04-25 14:32 -29.99478 -51.15990 16 ft 18 kts 92°
2026-04-25 14:32 -29.99483 -51.15852 16 ft 17 kts 91°
2026-04-25 14:32 -29.99486 -51.15719 16 ft 16 kts 91°
2026-04-25 14:32 -29.99489 -51.15591 14 ft 16 kts 91°
2026-04-25 14:33 -29.99491 -51.15468 12 ft 15 kts 91°
2026-04-25 14:33 -29.99494 -51.15350 13 ft 14 kts 91°
2026-04-25 14:33 -29.99497 -51.15237 13 ft 14 kts 91°
2026-04-25 14:33 -29.99483 -51.15134 15 ft 13 kts 47°
2026-04-25 14:34 -29.99435 -51.15050 13 ft 13 kts 85°
2026-04-25 14:34 -29.99487 -51.14989 13 ft 12 kts 193°
2026-04-25 14:34 -29.99507 -51.15032 13 ft 0 kts 268°
2026-04-25 14:35 -29.99504 -51.15259 13 ft 68 kts 272°
2026-04-25 14:36 -29.99488 -51.16104 17 ft 139 kts 271°
2026-04-25 14:36 -29.99444 -51.17396 354 ft 178 kts 273°
2026-04-25 14:36 -29.99333 -51.18977 774 ft 217 kts 274°
2026-04-25 14:36 -29.99253 -51.20855 1094 ft 251 kts 268°
2026-04-25 14:37 -29.99254 -51.22931 1484 ft 259 kts 268°
2026-04-25 14:37 -29.99187 -51.24959 2190 ft 257 kts 280°
2026-04-25 14:37 -29.98377 -51.26796 2857 ft 265 kts 313°
2026-04-25 14:37 -29.96812 -51.27893 3783 ft 264 kts 341°
2026-04-25 14:38 -29.94985 -51.28224 4702 ft 270 kts 357°
2026-04-25 14:38 -29.93094 -51.28159 5490 ft 274 kts 359°
2026-04-25 14:38 -29.91233 -51.28049 6634 ft 261 kts 359°
2026-04-25 14:38 -29.89418 -51.27944 7442 ft 263 kts 358°
2026-04-25 14:39 -29.87570 -51.27848 8111 ft 268 kts 358°
2026-04-25 14:39 -29.85698 -51.27758 8849 ft 271 kts 357°
2026-04-25 14:39 -29.83805 -51.27673 9623 ft 274 kts 356°
2026-04-25 14:39 -29.81893 -51.27591 10309 ft 276 kts 356°
2026-04-25 14:40 -29.79966 -51.27510 10974 ft 278 kts 356°
2026-04-25 14:40 -29.78016 -51.27430 11600 ft 282 kts 356°
2026-04-25 14:40 -29.76039 -51.27350 12235 ft 285 kts 356°
2026-04-25 14:40 -29.74035 -51.27270 12776 ft 294 kts 356°
2026-04-25 14:41 -29.71913 -51.27190 13009 ft 313 kts 356°
2026-04-25 14:41 -29.69712 -51.27143 13534 ft 318 kts 350°
2026-04-25 14:41 -29.67608 -51.27777 14140 ft 311 kts 332°
2026-04-25 14:41 -29.65618 -51.28741 14870 ft 310 kts 332°
2026-04-25 14:42 -29.63639 -51.29712 15585 ft 310 kts 331°
2026-04-25 14:42 -29.62994 -51.30029 15804 ft 310 kts 331°
2026-04-25 14:42 -29.59673 -51.31654 16876 ft 314 kts 331°
2026-04-25 14:42 -29.57651 -51.32636 17543 ft 316 kts 331°
2026-04-25 14:43 -29.55619 -51.33618 18154 ft 317 kts 331°
2026-04-25 14:43 -29.53575 -51.34604 18626 ft 321 kts 331°
2026-04-25 14:43 -29.51503 -51.35600 19121 ft 323 kts 331°
2026-04-25 14:43 -29.49422 -51.36600 19606 ft 325 kts 330°
2026-04-25 14:44 -29.47329 -51.37603 20051 ft 327 kts 330°
2026-04-25 14:44 -29.45220 -51.38614 20461 ft 329 kts 330°
2026-04-25 14:44 -29.43126 -51.39616 20906 ft 332 kts 330°
2026-04-25 14:44 -29.40989 -51.40636 21351 ft 334 kts 330°
2026-04-25 14:45 -29.38837 -51.41666 21799 ft 336 kts 330°
2026-04-25 14:45 -29.36666 -51.42705 22200 ft 339 kts 330°
2026-04-25 14:45 -29.34478 -51.43751 22613 ft 342 kts 330°
2026-04-25 14:45 -29.32272 -51.44805 23051 ft 344 kts 330°
2026-04-25 14:46 -29.30051 -51.45865 23505 ft 346 kts 330°
2026-04-25 14:46 -29.27832 -51.46922 23950 ft 346 kts 329°
2026-04-25 14:46 -29.25598 -51.47988 24263 ft 349 kts 329°
2026-04-25 14:46 -29.23359 -51.49052 24680 ft 348 kts 328°
2026-04-25 14:47 -29.21153 -51.50104 25129 ft 346 kts 328°
2026-04-25 14:47 -29.20404 -51.50461 25257 ft 347 kts 328°
2026-04-25 14:47 -29.16683 -51.52233 25833 ft 350 kts 328°
2026-04-25 14:47 -29.14427 -51.53306 26191 ft 351 kts 327°
2026-04-25 14:48 -29.12173 -51.54378 26507 ft 353 kts 327°
2026-04-25 14:48 -29.09895 -51.55461 26877 ft 353 kts 327°
2026-04-25 14:48 -29.07628 -51.56536 27303 ft 352 kts 327°
2026-04-25 14:48 -29.05366 -51.57615 27594 ft 352 kts 324°
2026-04-25 14:49 -29.03405 -51.59132 27886 ft 333 kts 307°
2026-04-25 14:49 -29.01892 -51.61070 28349 ft 322 kts 297°
2026-04-25 14:49 -29.00810 -51.63276 28761 ft 317 kts 291°
2026-04-25 14:49 -28.99874 -51.65545 29163 ft 316 kts 290°
2026-04-25 14:50 -28.98962 -51.67847 29322 ft 321 kts 289°
2026-04-25 14:50 -28.98041 -51.70171 29662 ft 321 kts 289°
2026-04-25 14:50 -28.97123 -51.72473 29967 ft 323 kts 290°
2026-04-25 14:50 -28.96183 -51.74803 30240 ft 323 kts 290°
2026-04-25 14:51 -28.95240 -51.77135 30507 ft 324 kts 290°
2026-04-25 14:51 -28.94295 -51.79467 30812 ft 324 kts 290°
2026-04-25 14:51 -28.93343 -51.81811 31009 ft 326 kts 290°
2026-04-25 14:51 -28.92388 -51.84154 31258 ft 326 kts 290°
2026-04-25 14:52 -28.91425 -51.86511 31482 ft 328 kts 290°
2026-04-25 14:52 -28.90458 -51.88877 31689 ft 329 kts 290°
2026-04-25 14:52 -28.89483 -51.91258 31896 ft 330 kts 290°
2026-04-25 14:52 -28.89169 -51.92027 31996 ft 330 kts 290°
2026-04-25 14:53 -28.87544 -51.95995 32290 ft 334 kts 290°
2026-04-25 14:53 -28.86558 -51.98397 32492 ft 334 kts 290°
2026-04-25 14:53 -28.85571 -52.00804 32665 ft 337 kts 290°
2026-04-25 14:53 -28.84575 -52.03230 32842 ft 338 kts 290°
2026-04-25 14:54 -28.83899 -52.04876 32987 ft 339 kts 291°
2026-04-25 14:54 -28.82298 -52.07958 33250 ft 348 kts 302°
2026-04-25 14:54 -28.80573 -52.09956 33438 ft 359 kts 312°
2026-04-25 14:54 -28.79235 -52.11090 33553 ft 364 kts 315°
2026-04-25 14:55 -28.77133 -52.12722 33725 ft 367 kts 316°
2026-04-25 14:55 -28.74996 -52.14327 33893 ft 369 kts 316°
2026-04-25 14:55 -28.72855 -52.15940 34046 ft 369 kts 316°
2026-04-25 14:55 -28.70711 -52.17564 34149 ft 371 kts 316°
2026-04-25 14:56 -28.66399 -52.20855 34399 ft 374 kts 316°
2026-04-25 14:56 -28.64243 -52.22514 34602 ft 373 kts 316°
2026-04-25 14:56 -28.62083 -52.24179 34718 ft 375 kts 316°
2026-04-25 14:57 -28.59917 -52.25848 34843 ft 376 kts 316°
2026-04-25 14:57 -28.57750 -52.27516 35028 ft 376 kts 316°
2026-04-25 14:57 -28.55581 -52.29185 35194 ft 377 kts 316°
2026-04-25 14:57 -28.53401 -52.30861 35350 ft 378 kts 316°
2026-04-25 14:58 -28.51221 -52.32536 35466 ft 380 kts 316°
2026-04-25 14:58 -28.49026 -52.34225 35522 ft 383 kts 316°
2026-04-25 14:58 -28.46839 -52.35905 35721 ft 384 kts 316°
2026-04-25 14:58 -28.44622 -52.37605 35910 ft 384 kts 316°
2026-04-25 14:59 -28.42402 -52.39307 36038 ft 385 kts 316°
2026-04-25 14:59 -28.40174 -52.41013 36147 ft 387 kts 317°
2026-04-25 14:59 -28.37821 -52.42561 36245 ft 398 kts 324°
2026-04-25 14:59 -28.35240 -52.43787 36364 ft 403 kts 327°
2026-04-25 15:00 -28.30019 -52.46182 36480 ft 407 kts 327°
2026-04-25 15:00 -28.24746 -52.48618 36699 ft 408 kts 327°
2026-04-25 15:01 -28.22118 -52.49834 36918 ft 407 kts 327°
2026-04-25 15:01 -28.19501 -52.51047 37022 ft 406 kts 327°
2026-04-25 15:01 -28.16881 -52.52264 37154 ft 407 kts 327°
2026-04-25 15:01 -28.14262 -52.53482 37342 ft 407 kts 327°
2026-04-25 15:02 -28.11652 -52.54693 37585 ft 404 kts 326°
2026-04-25 15:02 -28.09051 -52.55899 37710 ft 404 kts 326°
2026-04-25 15:02 -28.03834 -52.58323 37884 ft 405 kts 326°
2026-04-25 15:03 -28.01261 -52.59515 37996 ft 404 kts 326°
2026-04-25 15:03 -27.98656 -52.60723 38045 ft 406 kts 326°
2026-04-25 15:03 -27.93414 -52.63152 38034 ft 407 kts 326°
2026-04-25 15:04 -27.88165 -52.65577 38032 ft 405 kts 327°
2026-04-25 15:04 -27.82949 -52.67985 38034 ft 404 kts 327°
2026-04-25 15:05 -27.77747 -52.70386 38033 ft 403 kts 327°
2026-04-25 15:06 -27.69990 -52.73963 37986 ft 403 kts 327°
2026-04-25 15:06 -27.64801 -52.76352 38020 ft 403 kts 327°
2026-04-25 15:07 -27.59597 -52.78747 38029 ft 405 kts 327°
2026-04-25 15:07 -27.54367 -52.81150 38032 ft 407 kts 327°
2026-04-25 15:08 -27.49262 -52.83809 38002 ft 402 kts 322°
2026-04-25 15:08 -27.44346 -52.86809 38022 ft 403 kts 321°
2026-04-25 15:09 -27.39408 -52.89829 38038 ft 405 kts 322°
2026-04-25 15:09 -27.31954 -52.94320 38044 ft 408 kts 322°
2026-04-25 15:10 -27.26931 -52.97324 38032 ft 406 kts 323°
2026-04-25 15:11 -27.19502 -53.01757 38034 ft 400 kts 322°
2026-04-25 15:11 -27.14606 -53.04679 38017 ft 397 kts 322°
2026-04-25 15:12 -27.07260 -53.09068 38012 ft 401 kts 323°
2026-04-25 15:12 -27.03950 -53.11042 38025 ft 405 kts 323°
2026-04-25 15:13 -26.94770 -53.16503 38006 ft 410 kts 323°
2026-04-25 15:14 -26.89721 -53.19503 37556 ft 419 kts 323°
2026-04-25 15:14 -26.87152 -53.21026 37015 ft 418 kts 324°
2026-04-25 15:14 -26.84588 -53.22543 36525 ft 415 kts 324°
2026-04-25 15:14 -26.82036 -53.24053 35971 ft 414 kts 324°
2026-04-25 15:15 -26.79488 -53.25561 35485 ft 412 kts 324°
2026-04-25 15:15 -26.76959 -53.27057 35063 ft 409 kts 324°
2026-04-25 15:15 -26.74448 -53.28543 34602 ft 407 kts 324°
2026-04-25 15:15 -26.71955 -53.30019 34185 ft 404 kts 324°
2026-04-25 15:16 -26.69471 -53.31488 33696 ft 403 kts 324°
2026-04-25 15:16 -26.67006 -53.32944 33237 ft 399 kts 324°
2026-04-25 15:16 -26.62125 -53.35830 32391 ft 393 kts 324°
2026-04-25 15:17 -26.57323 -53.38668 31591 ft 388 kts 324°
2026-04-25 15:17 -26.54942 -53.40072 31193 ft 386 kts 324°
2026-04-25 15:17 -26.52575 -53.41468 30781 ft 384 kts 324°
2026-04-25 15:18 -26.50249 -53.42838 30399 ft 382 kts 324°
2026-04-25 15:18 -26.45565 -53.45603 29505 ft 379 kts 324°
2026-04-25 15:18 -26.43235 -53.46969 29031 ft 377 kts 324°
2026-04-25 15:19 -26.40912 -53.48336 28483 ft 377 kts 324°
2026-04-25 15:19 -26.40130 -53.48800 28342 ft 377 kts 324°
2026-04-25 15:19 -26.36288 -53.51057 27623 ft 374 kts 324°
2026-04-25 15:19 -26.33994 -53.52401 27212 ft 371 kts 324°
2026-04-25 15:20 -26.31709 -53.53740 26802 ft 370 kts 324°
2026-04-25 15:20 -26.29437 -53.55069 26393 ft 368 kts 324°
2026-04-25 15:20 -26.27176 -53.56394 25986 ft 366 kts 324°
2026-04-25 15:20 -26.24927 -53.57712 25560 ft 364 kts 324°
2026-04-25 15:21 -26.22724 -53.59005 25181 ft 362 kts 324°
2026-04-25 15:21 -26.20496 -53.60312 24757 ft 362 kts 323°
2026-04-25 15:21 -26.18267 -53.61625 24363 ft 360 kts 323°
2026-04-25 15:21 -26.16052 -53.62925 23953 ft 360 kts 324°
2026-04-25 15:22 -26.13834 -53.64218 23528 ft 360 kts 324°
2026-04-25 15:22 -26.11620 -53.65513 23079 ft 358 kts 324°
2026-04-25 15:22 -26.09410 -53.66801 22661 ft 357 kts 324°
2026-04-25 15:22 -26.07221 -53.68077 22254 ft 356 kts 324°
2026-04-25 15:23 -26.05025 -53.69358 21849 ft 355 kts 325°
2026-04-25 15:23 -26.02869 -53.70617 21448 ft 354 kts 325°
2026-04-25 15:23 -26.00692 -53.71887 21056 ft 353 kts 325°
2026-04-25 15:23 -25.98523 -53.73153 20668 ft 352 kts 326°
2026-04-25 15:24 -25.96356 -53.74417 20278 ft 352 kts 326°
2026-04-25 15:24 -25.94186 -53.75682 19871 ft 352 kts 326°
2026-04-25 15:24 -25.92018 -53.76946 19468 ft 352 kts 327°
2026-04-25 15:24 -25.91287 -53.77373 19329 ft 353 kts 327°
2026-04-25 15:25 -25.87673 -53.79476 18669 ft 353 kts 327°
2026-04-25 15:25 -25.85494 -53.80743 18259 ft 354 kts 328°
2026-04-25 15:25 -25.83469 -53.82242 17785 ft 347 kts 311°
2026-04-25 15:25 -25.82005 -53.84277 17758 ft 329 kts 301°
2026-04-25 15:26 -25.80744 -53.86413 17236 ft 332 kts 299°
2026-04-25 15:26 -25.79520 -53.88593 16759 ft 334 kts 299°
2026-04-25 15:26 -25.78311 -53.90766 16279 ft 336 kts 299°
2026-04-25 15:26 -25.77477 -53.92258 15956 ft 337 kts 300°
2026-04-25 15:27 -25.75829 -53.95186 15324 ft 339 kts 300°
2026-04-25 15:27 -25.74571 -53.97406 14864 ft 340 kts 300°
2026-04-25 15:27 -25.72308 -54.01373 14041 ft 342 kts 301°
2026-04-25 15:28 -25.71032 -54.03599 13564 ft 343 kts 301°
2026-04-25 15:28 -25.69760 -54.05816 13037 ft 337 kts 301°
2026-04-25 15:28 -25.68515 -54.07983 12526 ft 329 kts 301°
2026-04-25 15:28 -25.67298 -54.10100 12028 ft 323 kts 301°
2026-04-25 15:29 -25.66103 -54.12177 11597 ft 315 kts 301°
2026-04-25 15:29 -25.64943 -54.14192 11241 ft 306 kts 301°
2026-04-25 15:29 -25.63816 -54.16150 10969 ft 295 kts 301°
2026-04-25 15:29 -25.62732 -54.18033 10722 ft 285 kts 301°
2026-04-25 15:30 -25.61681 -54.19856 10477 ft 276 kts 301°
2026-04-25 15:30 -25.60663 -54.21623 10240 ft 270 kts 301°
2026-04-25 15:30 -25.59660 -54.23364 10010 ft 266 kts 301°
2026-04-25 15:30 -25.58670 -54.25082 9775 ft 262 kts 301°
2026-04-25 15:31 -25.57695 -54.26773 9516 ft 259 kts 301°
2026-04-25 15:31 -25.56731 -54.28443 9242 ft 255 kts 301°
2026-04-25 15:31 -25.55780 -54.30091 8995 ft 251 kts 301°
2026-04-25 15:31 -25.54845 -54.31711 8739 ft 248 kts 301°
2026-04-25 15:32 -25.53935 -54.33286 8495 ft 245 kts 301°
2026-04-25 15:32 -25.53024 -54.34864 8248 ft 242 kts 301°
2026-04-25 15:32 -25.52121 -54.36427 7999 ft 240 kts 301°
2026-04-25 15:33 -25.50333 -54.39518 7520 ft 237 kts 301°
2026-04-25 15:33 -25.49447 -54.41051 7281 ft 236 kts 302°
2026-04-25 15:33 -25.48560 -54.42585 7066 ft 237 kts 302°
2026-04-25 15:33 -25.47670 -54.44123 6793 ft 236 kts 302°
2026-04-25 15:34 -25.46791 -54.45639 6551 ft 233 kts 302°
2026-04-25 15:34 -25.45919 -54.47143 6334 ft 230 kts 302°
2026-04-25 15:34 -25.45058 -54.48630 6098 ft 230 kts 302°
2026-04-25 15:34 -25.44485 -54.49619 5941 ft 230 kts 302°
2026-04-25 15:35 -25.42464 -54.53105 5369 ft 232 kts 302°
2026-04-25 15:35 -25.41596 -54.54603 5142 ft 230 kts 302°
2026-04-25 15:35 -25.40729 -54.56096 4905 ft 231 kts 302°
2026-04-25 15:36 -25.38990 -54.59089 4405 ft 231 kts 302°
2026-04-25 15:36 -25.38244 -54.60648 4141 ft 229 kts 282°
2026-04-25 15:36 -25.38302 -54.62382 3927 ft 229 kts 252°
2026-04-25 15:37 -25.39140 -54.63889 3690 ft 235 kts 224°
2026-04-25 15:37 -25.40565 -54.64782 3456 ft 240 kts 195°
2026-04-25 15:37 -25.42242 -54.64761 3233 ft 246 kts 166°
2026-04-25 15:37 -25.43841 -54.64125 3084 ft 240 kts 159°
2026-04-25 15:38 -25.45316 -54.63402 3003 ft 221 kts 157°
2026-04-25 15:38 -25.46628 -54.62719 2963 ft 197 kts 157°
2026-04-25 15:38 -25.47862 -54.62065 3015 ft 198 kts 156°
2026-04-25 15:38 -25.49094 -54.61414 3002 ft 194 kts 156°
2026-04-25 15:39 -25.50253 -54.60713 2984 ft 194 kts 141°
2026-04-25 15:39 -25.51175 -54.59588 2875 ft 202 kts 132°
2026-04-25 15:39 -25.52085 -54.58389 2625 ft 202 kts 133°
2026-04-25 15:39 -25.52967 -54.57265 2389 ft 187 kts 133°
2026-04-25 15:40 -25.53779 -54.56215 2126 ft 170 kts 133°
2026-04-25 15:40 -25.54283 -54.55566 2003 ft 161 kts 133°
2026-04-25 15:40 -25.55200 -54.54382 1739 ft 148 kts 134°
2026-04-25 15:40 -25.55858 -54.53533 1547 ft 144 kts 132°
2026-04-25 15:41 -25.56516 -54.52684 1386 ft 147 kts 131°
2026-04-25 15:41 -25.57180 -54.51826 1199 ft 146 kts 130°
2026-04-25 15:41 -25.57840 -54.50974 1007 ft 145 kts 129°
2026-04-25 15:41 -25.58486 -54.50155 893 ft 138 kts 129°
2026-04-25 15:42 -25.59083 -54.49379 798 ft 125 kts 125°
2026-04-25 15:42 -25.59494 -54.48830 799 ft 36 kts 130°
2026-04-25 15:42 -25.59635 -54.48652 797 ft 29 kts 131°
2026-04-25 15:42 -25.59755 -54.48506 794 ft 21 kts 140°
2026-04-25 15:43 -25.59823 -54.48505 794 ft 0 kts 213°
2026-04-25 15:43 -25.59824 -54.48506 795 ft 3 kts 214°
2026-04-25 15:43 -25.59839 -54.48568 797 ft 12 kts 298°
2026-04-25 15:44 -25.59788 -54.48640 797 ft 12 kts 310°
2026-04-25 15:44 -25.59736 -54.48707 797 ft 11 kts 310°
2026-04-25 15:44 -25.59690 -54.48766 797 ft 6 kts 310°
2026-04-25 15:44 -25.59686 -54.48771 797 ft 0 kts 310°
2026-04-25 15:45 -25.59685 -54.48773 797 ft 0 kts 310°
2026-04-25 15:45 -25.59684 -54.48775 797 ft 0 kts 310°
2026-04-25 15:45 -25.59683 -54.48776 797 ft 0 kts 310°
2026-04-25 15:46 -25.59677 -54.48783 797 ft 2 kts 310°
2026-04-25 15:46 -25.59671 -54.48792 797 ft 0 kts 310°
2026-04-25 15:47 -25.59666 -54.48808 797 ft 3 kts 276°
2026-04-25 15:47 -25.59675 -54.48829 797 ft 1 kts 239°
2026-04-25 15:47 -25.59681 -54.48836 797 ft 1 kts 230°
2026-04-25 15:47 -25.59684 -54.48841 797 ft 0 kts 238°
2026-04-25 15:48 -25.59690 -54.48846 797 ft 1 kts 217°
2026-04-25 15:48 -25.59692 -54.48847 797 ft 0 kts 217°